Regional Weather Roundup
Issued by NWS Green Bay, WI

Home | Current Version | Previous Version | Text Only | Print | Product List | Glossary On
Versions: 1 2 3 4 5 6 7 8 9 10 11 12 13 14 15 16 17 18 19 20 21 22 23 24 25 26 27 28 29 30 31 32 33 34 35 36 37 38 39 40 41 42 43 44 45 46 47 48 49 50
080
ASUS43 KGRB 031200
RWRGRB

NORTH-CENTRAL AND NORTHEAST WISCONSIN REGIONAL WEATHER ROUNDUP
NATIONAL WEATHER SERVICE GREEN BAY WI
700 AM CDT TUE MAY 03 2016

WIZ005-009-010>012-018-019-031300-
NORTH CENTRAL WISCONSIN

CITY           SKY/WX    TMP DP  RH WIND       PRES   REMARKS
IRONWOOD         N/A     52  32  46 SW9       29.78F
MANITOWISH WTR NOT AVBL
ARBOR VITAE    NOT AVBL
EAGLE RIVER    NOT AVBL
LAND O LAKES   NOT AVBL
RHINELANDER    SUNNY     42  34  73 W5        29.87F
PHILLIPS       NOT AVBL
ANTIGO         NOT AVBL
TOMAHAWK       NOT AVBL
MERRILL        NOT AVBL
$$

WIZ013-073-031300-
NORTHEAST WISCONSIN

CITY           SKY/WX    TMP DP  RH WIND       PRES   REMARKS
IRON MOUNTAIN  CLOUDY    41  32  70 N3        29.82F
MARINETTE      SUNNY     46  34  61 W6        29.86S
$$

WIZ017-030-035>037-045-031300-
CENTRAL WISCONSIN

CITY           SKY/WX    TMP DP  RH WIND       PRES   REMARKS
MEDFORD        NOT AVBL
WAUSAU         SUNNY     49  36  61 NW6       29.88F
MOSINEE        SUNNY     45  36  70 W5        29.91F
MARSHFIELD     SUNNY     46  36  68 W7        29.91S
WISC RAPIDS    SUNNY     39  36  89 SW3       29.94R
STEVENS POINT  NOT AVBL
WAUPACA        NOT AVBL
SHAWANO        NOT AVBL
CLINTONVILLE   NOT AVBL
WAUTOMA        SUNNY     38  36  92 MISG        N/A
$$

WIZ038-039-048-051-031300-
FOX VALLEY

CITY           SKY/WX    TMP DP  RH WIND       PRES   REMARKS
NWS GREEN BAY  SUNNY     46  38  73 SW7       29.89F
APPLETON       MOSUNNY   46  36  66 W9        29.89S
OSHKOSH        SUNNY     49  35  58 W8        29.91S
FOND DU LAC    SUNNY     46  36  68 SW6       29.93S
$$

WIZ022-050-052-031300-
EAST CENTRAL WISCONSIN

CITY           SKY/WX    TMP DP  RH WIND       PRES   REMARKS
EPHRAIM        NOT AVBL
STURGEON BAY   SUNNY     48  36  61 SW8       29.89S
MANITOWOC      NOT AVBL
SHEBOYGAN      SUNNY     46  37  71 SW5       29.92S
$$

LMZ563-521-522-541>543-031300-
LAKESHORE

STATION/POSITION TIME  TEMP    WIND        PRES    VSBY  WAVE
                       AIR SEA DIR/SP/G                  HT/PER
                 (UTC) (F)     (DEG/KT/KT) (MB)    (MI)  (FT/S)
SHEBOYGAN LKSHOR 1100   47     220/  7/  8 1013.8F
KEWAUNEE LKSHORE 1100   44     300/  4/  7 1011.6F
ALGOMA MARINA    1115          260/  7/ 10   N/A
NORTHPORT PIER   1100   46     220/  4/  9 1010.8F
N MID LAKE BUOY  1050   42 38  180/ 10/ 12 1011.2F         0
CHAMBERS ISLAND  1100   47     200/  6/ 11 1011.2F
MENOMINEE LKSHOR 1100   47     240/  9/ 11 1010.3F
$$




USA.gov is the U.S. government's official web portal to all federal, state and local government web resources and services.